Location: Newark
(25.6667°S, 25.9167°E)
Time: 08:25:38
(UTC+00:00)

Envisat - Visible Passes

Search period start: 18 September 2020 00:00
Search period end: 28 September 2020 00:00
Orbit: 764 x 766 km, 98.1° (Epoch: 18 September)

Date Brightness Start Highest point End Pass type
(mag) Time Alt. Az. Time Alt. Az. Time Alt. Az.
18 Sep 4.6 03:10:23 10° NE 03:15:04 38° ESE 03:19:47 10° S visible
18 Sep 5.5 17:07:00 10° SSW 17:11:02 24° WSW 17:15:03 10° NW visible
19 Sep 6.0 02:35:38 10° ENE 02:38:34 16° ESE 02:41:32 10° SSE visible
19 Sep 3.7 16:29:26 10° S 16:34:28 61° WSW 16:39:28 10° NNW visible
20 Sep 3.3 03:35:20 10° NNE 03:40:23 75° ESE 03:45:31 10° S visible
20 Sep 6.2 17:34:07 10° SW 17:36:12 13° WSW 17:38:18 10° W visible
21 Sep 5.1 02:59:25 10° NE 03:03:47 29° ESE 03:08:09 10° SSE visible
21 Sep 5.1 16:55:18 10° SSW 16:59:46 31° WSW 17:04:12 10° NW visible
22 Sep 6.3 02:25:38 10° E 02:27:21 12° ESE 02:29:04 10° SE visible
23 Sep 3.8 03:24:06 10° NNE 03:29:04 56° ESE 03:34:05 10° S visible
23 Sep 6.0 17:21:49 10° SSW 17:24:59 17° WSW 17:28:07 10° WNW visible
24 Sep 5.6 02:48:37 10° ENE 02:52:31 23° ESE 02:56:25 10° SSE visible
24 Sep 4.5 16:43:42 10° S 16:48:29 41° WSW 16:53:13 10° NW visible
26 Sep 4.4 03:12:59 10° NE 03:17:46 42° ESE 03:22:34 10° S visible
26 Sep 5.7 17:09:53 10° SSW 17:13:43 22° WSW 17:17:33 10° WNW visible
27 Sep 6.0 02:38:00 10° ENE 02:41:15 17° ESE 02:44:31 10° SSE visible
27 Sep 4.0 16:32:11 10° S 16:37:10 54° WSW 16:42:07 10° NNW visible
